TimeCDT,TemperatureF,Dew PointF,Humidity,Sea Level PressureIn,VisibilityMPH,Wind Direction,Wind SpeedMPH,Gust SpeedMPH,PrecipitationIn,Events,Conditions,WindDirDegrees,DateUTC
12:15 AM,52.0,48.9,89,29.98,7.0,SSE,5.8,-,0.03,Rain-Thunderstorm,Rain,150,2013-05-08 05:15:00
12:35 AM,52.0,48.9,89,29.96,10.0,SSW,8.1,-,0.05,Rain,Light Rain,210,2013-05-08 05:35:00
12:55 AM,52.2,48.9,89,29.96,10.0,SSW,9.2,-,0.07,Rain,Rain,210,2013-05-08 05:55:00
1:15 AM,52.7,49.1,88,29.94,10.0,SSW,9.2,-,0.03,Rain,Light Rain,200,2013-05-08 06:15:00
1:35 AM,53.1,48.6,85,29.93,10.0,SSW,12.7,-,0.03,Rain,Light Rain,210,2013-05-08 06:35:00
1:55 AM,52.9,48.7,86,29.91,10.0,South,11.5,-,0.03,Rain,Light Rain,190,2013-05-08 06:55:00
2:15 AM,52.7,48.6,86,29.91,10.0,South,12.7,-,N/A,Rain,Light Rain,190,2013-05-08 07:15:00
2:35 AM,52.3,49.1,89,29.89,10.0,South,17.3,21.9,N/A,,Mostly Cloudy,180,2013-05-08 07:35:00
2:55 AM,52.7,48.2,85,29.90,10.0,South,15.0,-,N/A,,Scattered Clouds,170,2013-05-08 07:55:00
3:15 AM,52.7,47.7,83,29.90,10.0,South,11.5,-,N/A,,Clear,180,2013-05-08 08:15:00
3:35 AM,52.5,47.3,82,29.91,10.0,SSW,9.2,-,N/A,,Clear,210,2013-05-08 08:35:00
3:55 AM,51.4,47.3,86,29.91,10.0,SSW,8.1,-,N/A,,Clear,200,2013-05-08 08:55:00
4:15 AM,50.4,46.6,87,29.91,10.0,Calm,Calm,-,N/A,,Clear,0,2013-05-08 09:15:00
4:35 AM,50.2,46.4,87,29.91,10.0,SSW,3.5,-,N/A,,Clear,210,2013-05-08 09:35:00
4:55 AM,48.2,44.8,88,29.91,10.0,NE,3.5,-,N/A,,Clear,40,2013-05-08 09:55:00
5:15 AM,48.2,45.1,89,29.91,10.0,Calm,Calm,-,N/A,,Clear,0,2013-05-08 10:15:00
5:35 AM,46.4,43.7,90,29.92,10.0,NW,5.8,-,N/A,,Clear,310,2013-05-08 10:35:00
5:55 AM,46.0,43.7,92,29.92,10.0,West,5.8,-,N/A,,Clear,270,2013-05-08 10:55:00
6:15 AM,46.6,44.1,91,29.93,10.0,WNW,3.5,-,N/A,,Clear,290,2013-05-08 11:15:00
6:35 AM,46.0,43.9,92,29.93,10.0,West,4.6,-,N/A,,Clear,280,2013-05-08 11:35:00
6:55 AM,45.5,43.0,91,29.93,10.0,WNW,5.8,-,N/A,,Clear,290,2013-05-08 11:55:00
7:15 AM,46.0,43.9,92,29.93,10.0,WNW,3.5,-,N/A,,Clear,290,2013-05-08 12:15:00
7:35 AM,47.3,45.3,93,29.94,10.0,WNW,4.6,-,N/A,,Clear,300,2013-05-08 12:35:00
7:55 AM,49.5,47.1,92,29.94,10.0,NW,5.8,-,N/A,,Clear,310,2013-05-08 12:55:00
8:15 AM,51.8,48.4,88,29.95,10.0,NW,5.8,-,N/A,,Clear,310,2013-05-08 13:15:00
8:35 AM,54.5,49.1,82,29.95,10.0,NW,9.2,-,N/A,,Clear,320,2013-05-08 13:35:00
8:55 AM,55.8,49.8,80,29.96,10.0,NW,5.8,-,N/A,,Clear,320,2013-05-08 13:55:00
9:15 AM,57.6,50.4,77,29.96,10.0,NW,5.8,-,N/A,,Clear,320,2013-05-08 14:15:00
9:35 AM,59.5,50.0,71,29.96,10.0,NW,9.2,-,N/A,,Clear,320,2013-05-08 14:35:00
9:55 AM,61.0,48.9,64,29.96,10.0,NNW,8.1,-,N/A,,Clear,340,2013-05-08 14:55:00
10:15 AM,62.8,48.2,59,29.96,10.0,North,9.2,-,N/A,,Clear,350,2013-05-08 15:15:00
10:35 AM,64.2,47.1,54,29.97,10.0,North,6.9,-,N/A,,Clear,10,2013-05-08 15:35:00
10:55 AM,64.9,46.8,52,29.97,10.0,North,10.4,-,N/A,,Clear,350,2013-05-08 15:55:00
11:15 AM,66.4,46.2,48,29.97,10.0,North,9.2,-,N/A,,Clear,360,2013-05-08 16:15:00
11:35 AM,66.7,43.3,43,29.98,10.0,North,9.2,-,N/A,,Clear,10,2013-05-08 16:35:00
11:55 AM,67.8,42.6,40,29.98,10.0,NNE,6.9,19.6,N/A,,Clear,20,2013-05-08 16:55:00
12:15 PM,68.5,40.3,36,29.98,10.0,NE,6.9,-,N/A,,Clear,50,2013-05-08 17:15:00
12:35 PM,69.4,42.6,38,29.98,10.0,NE,10.4,-,N/A,,Clear,50,2013-05-08 17:35:00
12:55 PM,69.1,41.4,37,29.98,10.0,NNW,5.8,-,N/A,,Clear,330,2013-05-08 17:55:00
1:15 PM,69.8,41.4,36,29.98,10.0,North,5.8,-,N/A,,Scattered Clouds,360,2013-05-08 18:15:00
1:35 PM,70.0,42.1,36,29.98,10.0,NE,10.4,-,N/A,,Scattered Clouds,50,2013-05-08 18:35:00
1:55 PM,71.2,40.3,33,29.97,10.0,NE,12.7,19.6,N/A,,Scattered Clouds,40,2013-05-08 18:55:00
2:15 PM,71.4,40.3,32,29.97,10.0,NNE,5.8,19.6,N/A,,Clear,30,2013-05-08 19:15:00
2:35 PM,71.4,39.4,31,29.97,10.0,NNE,8.1,-,N/A,,Scattered Clouds,30,2013-05-08 19:35:00
2:55 PM,70.9,39.2,32,29.97,10.0,NNE,10.4,16.1,N/A,,Mostly Cloudy,20,2013-05-08 19:55:00
3:35 PM,72.3,40.3,31,29.96,10.0,NNE,12.7,-,N/A,,Scattered Clouds,30,2013-05-08 20:35:00
3:55 PM,73.2,39.7,30,29.96,10.0,NNE,13.8,25.3,N/A,,Scattered Clouds,20,2013-05-08 20:55:00
4:15 PM,71.6,38.3,30,29.96,10.0,North,9.2,-,N/A,,Scattered Clouds,360,2013-05-08 21:15:00
4:35 PM,72.9,38.7,29,29.96,10.0,North,12.7,20.7,N/A,,Mostly Cloudy,10,2013-05-08 21:35:00
4:55 PM,72.0,37.9,29,29.95,10.0,North,16.1,23.0,N/A,,Mostly Cloudy,350,2013-05-08 21:55:00
5:15 PM,72.5,38.3,29,29.96,10.0,NNE,12.7,18.4,N/A,,Scattered Clouds,20,2013-05-08 22:15:00
5:35 PM,71.4,37.9,30,29.96,10.0,North,12.7,17.3,N/A,,Clear,10,2013-05-08 22:35:00
5:55 PM,70.2,39.6,33,29.96,10.0,NNE,16.1,23.0,N/A,,Scattered Clouds,20,2013-05-08 22:55:00
6:15 PM,68.9,39.4,34,29.96,10.0,NNE,16.1,23.0,N/A,,Scattered Clouds,20,2013-05-08 23:15:00
6:35 PM,69.6,36.7,30,29.96,10.0,NNE,10.4,18.4,N/A,,Clear,30,2013-05-08 23:35:00
6:55 PM,70.7,35.6,28,29.97,10.0,NNE,16.1,21.9,N/A,,Scattered Clouds,30,2013-05-08 23:55:00
7:15 PM,69.8,35.6,28,29.97,10.0,NNE,9.2,-,N/A,,Scattered Clouds,20,2013-05-09 00:15:00
7:35 PM,69.1,35.6,29,29.98,10.0,NNE,11.5,-,N/A,,Scattered Clouds,20,2013-05-09 00:35:00
7:55 PM,68.2,37.6,33,29.98,10.0,NNE,13.8,17.3,N/A,,Scattered Clouds,30,2013-05-09 00:55:00
8:15 PM,66.4,39.9,38,29.99,10.0,NNE,17.3,20.7,N/A,,Scattered Clouds,30,2013-05-09 01:15:00
8:35 PM,63.9,43.3,47,30.00,10.0,NE,13.8,-,N/A,,Scattered Clouds,40,2013-05-09 01:35:00
8:55 PM,62.2,43.7,51,30.01,10.0,NE,10.4,-,N/A,,Scattered Clouds,40,2013-05-09 01:55:00
9:15 PM,59.9,44.1,56,30.02,10.0,NE,4.6,-,N/A,,Clear,40,2013-05-09 02:15:00
9:35 PM,58.1,44.8,61,30.01,10.0,NNE,5.8,-,N/A,,Clear,30,2013-05-09 02:35:00
10:15 PM,56.8,44.6,64,30.01,10.0,Calm,Calm,-,N/A,,Clear,0,2013-05-09 03:15:00
10:35 PM,57.0,44.6,63,30.02,10.0,Calm,Calm,-,N/A,,Clear,0,2013-05-09 03:35:00
11:35 PM,54.0,44.4,70,30.02,10.0,Calm,Calm,-,N/A,,Clear,0,2013-05-09 04:35:00
11:55 PM,53.6,44.6,72,30.03,10.0,Calm,Calm,-,N/A,,Clear,0,2013-05-09 04:55:00